Time,TemperatureF,DewpointF,PressureIn,WindDirection,WindDirectionDegrees,WindSpeedMPH,WindSpeedGustMPH,Humidity,HourlyPrecipIn,Conditions,Clouds,dailyrainin,SoftwareType,DateUTC
2013-02-25 00:00:00,26.9,19.4,30.13,WSW,253,0.0,0.0,73,0.00,,---,0.00,VWS V14.01,2013-02-25 05:00:00,
2013-02-25 00:02:00,26.8,19.3,30.13,WSW,256,0.0,1.0,73,0.00,,---,0.00,VWS V14.01,2013-02-25 05:02:00,
2013-02-25 00:07:00,26.6,19.4,30.13,West,277,0.0,0.0,74,0.00,,---,0.00,VWS V14.01,2013-02-25 05:07:00,
2013-02-25 00:12:00,26.6,19.4,30.13,WNW,285,0.0,1.0,74,0.00,,---,0.00,VWS V14.01,2013-02-25 05:12:00,
2013-02-25 00:17:00,26.6,19.4,30.13,West,281,0.0,1.0,74,0.00,,---,0.00,VWS V14.01,2013-02-25 05:17:00,
2013-02-25 00:22:00,26.5,19.7,30.13,WNW,291,0.0,2.0,75,0.00,,---,0.00,VWS V14.01,2013-02-25 05:22:00,
2013-02-25 00:27:00,26.5,19.7,30.13,WNW,300,1.0,2.0,75,0.00,,---,0.00,VWS V14.01,2013-02-25 05:27:00,
2013-02-25 00:32:00,26.5,19.7,30.12,WNW,288,2.0,3.0,75,0.00,,---,0.00,VWS V14.01,2013-02-25 05:32:00,
2013-02-25 00:37:00,26.5,19.7,30.13,WNW,287,1.0,2.0,75,0.00,,---,0.00,VWS V14.01,2013-02-25 05:37:00,
2013-02-25 00:42:00,26.5,19.7,30.13,NW,308,2.0,2.0,75,0.00,,---,0.00,VWS V14.01,2013-02-25 05:42:00,
2013-02-25 00:47:00,26.5,20.0,30.13,WNW,291,2.0,3.0,76,0.00,,---,0.00,VWS V14.01,2013-02-25 05:47:00,
2013-02-25 00:52:00,26.5,20.0,30.13,WNW,295,3.0,3.0,76,0.00,,---,0.00,VWS V14.01,2013-02-25 05:52:00,
2013-02-25 00:57:00,26.5,20.0,30.12,WNW,302,3.0,3.0,76,0.00,,---,0.00,VWS V14.01,2013-02-25 05:57:00,
2013-02-25 01:02:00,26.5,20.0,30.12,NW,316,2.0,3.0,76,0.00,,---,0.00,VWS V14.01,2013-02-25 06:02:00,
2013-02-25 01:07:00,26.6,19.8,30.12,NW,304,2.0,2.0,75,0.00,,---,0.00,VWS V14.01,2013-02-25 06:07:00,
2013-02-25 01:12:00,26.7,19.9,30.12,WNW,294,2.0,2.0,75,0.00,,---,0.00,VWS V14.01,2013-02-25 06:12:00,
2013-02-25 01:17:00,26.8,20.0,30.13,NW,310,0.0,1.0,75,0.00,,---,0.00,VWS V14.01,2013-02-25 06:17:00,
2013-02-25 01:22:00,26.8,20.0,30.13,West,274,1.0,2.0,75,0.00,,---,0.00,VWS V14.01,2013-02-25 06:22:00,
2013-02-25 01:27:00,26.8,20.0,30.13,WNW,297,0.0,2.0,75,0.00,,---,0.00,VWS V14.01,2013-02-25 06:27:00,
2013-02-25 01:32:00,26.7,19.9,30.13,WNW,291,0.0,2.0,75,0.00,,---,0.00,VWS V14.01,2013-02-25 06:32:00,
2013-02-25 01:37:00,26.7,19.9,30.13,NNW,328,0.0,1.0,75,0.00,,---,0.00,VWS V14.01,2013-02-25 06:37:00,
2013-02-25 01:42:00,26.7,19.9,30.12,NNE,12,0.0,2.0,75,0.00,,---,0.00,VWS V14.01,2013-02-25 06:42:00,
2013-02-25 01:47:00,26.9,19.7,30.13,NW,315,1.0,2.0,74,0.00,,---,0.00,VWS V14.01,2013-02-25 06:47:00,
2013-02-25 01:52:00,27.1,19.6,30.13,NW,304,2.0,3.0,73,0.00,,---,0.00,VWS V14.01,2013-02-25 06:52:00,
2013-02-25 01:57:00,26.9,19.7,30.13,West,270,0.0,1.0,74,0.00,,---,0.00,VWS V14.01,2013-02-25 06:57:00,
2013-02-25 02:03:00,26.7,19.9,30.12,WNW,294,1.0,1.0,75,0.00,,---,0.00,VWS V14.01,2013-02-25 07:03:00,
2013-02-25 02:08:00,26.6,19.8,30.12,WNW,294,1.0,1.0,75,0.00,,---,0.00,VWS V14.01,2013-02-25 07:08:00,
2013-02-25 02:13:00,26.5,19.7,30.13,SE,142,0.0,0.0,75,0.00,,---,0.00,VWS V14.01,2013-02-25 07:13:00,
2013-02-25 02:18:00,26.5,19.7,30.14,NW,325,0.0,2.0,75,0.00,,---,0.00,VWS V14.01,2013-02-25 07:18:00,
2013-02-25 02:23:00,26.5,19.4,30.13,WNW,284,0.0,1.0,74,0.00,,---,0.00,VWS V14.01,2013-02-25 07:23:00,
2013-02-25 02:28:00,26.3,19.5,30.13,WNW,283,0.0,0.0,75,0.00,,---,0.00,VWS V14.01,2013-02-25 07:28:00,
2013-02-25 02:33:00,26.2,19.4,30.13,WNW,283,0.0,0.0,75,0.00,,---,0.00,VWS V14.01,2013-02-25 07:33:00,
2013-02-25 02:38:00,26.2,19.4,30.14,WNW,285,0.0,1.0,75,0.00,,---,0.00,VWS V14.01,2013-02-25 07:38:00,
2013-02-25 02:43:00,26.2,19.4,30.13,WNW,293,0.0,0.0,75,0.00,,---,0.00,VWS V14.01,2013-02-25 07:43:00,
2013-02-25 02:48:00,26.2,19.4,30.14,WSW,245,0.0,0.0,75,0.00,,---,0.00,VWS V14.01,2013-02-25 07:48:00,
2013-02-25 02:53:00,26.1,19.6,30.14,WSW,239,1.0,1.0,76,0.00,,---,0.00,VWS V14.01,2013-02-25 07:53:00,
2013-02-25 02:58:00,26.1,19.6,30.14,WNW,287,0.0,1.0,76,0.00,,---,0.00,VWS V14.01,2013-02-25 07:58:00,
2013-02-25 03:03:00,26.2,19.7,30.14,SW,233,0.0,0.0,76,0.00,,---,0.00,VWS V14.01,2013-02-25 08:03:00,
2013-02-25 03:08:00,26.1,19.6,30.14,NNW,346,0.0,1.0,76,0.00,,---,0.00,VWS V14.01,2013-02-25 08:08:00,
2013-02-25 03:13:00,25.9,19.4,30.14,NW,315,0.0,0.0,76,0.00,,---,0.00,VWS V14.01,2013-02-25 08:13:00,
2013-02-25 03:18:00,25.7,19.5,30.14,WSW,238,0.0,1.0,77,0.00,,---,0.00,VWS V14.01,2013-02-25 08:18:00,
2013-02-25 03:23:00,25.8,19.6,30.14,WNW,290,0.0,1.0,77,0.00,,---,0.00,VWS V14.01,2013-02-25 08:23:00,
2013-02-25 03:28:00,25.9,19.7,30.14,West,281,0.0,1.0,77,0.00,,---,0.00,VWS V14.01,2013-02-25 08:28:00,
2013-02-25 03:33:00,25.7,19.8,30.14,West,276,0.0,0.0,78,0.00,,---,0.00,VWS V14.01,2013-02-25 08:33:00,
2013-02-25 03:38:00,25.7,19.8,30.14,WNW,284,0.0,1.0,78,0.00,,---,0.00,VWS V14.01,2013-02-25 08:38:00,
2013-02-25 03:43:00,25.8,19.9,30.15,WNW,290,2.0,2.0,78,0.00,,---,0.00,VWS V14.01,2013-02-25 08:43:00,
2013-02-25 03:48:00,25.9,19.7,30.15,WNW,288,1.0,1.0,77,0.00,,---,0.00,VWS V14.01,2013-02-25 08:48:00,
2013-02-25 03:53:00,25.8,19.9,30.14,WNW,288,1.0,1.0,78,0.00,,---,0.00,VWS V14.01,2013-02-25 08:53:00,
2013-02-25 03:58:00,25.8,19.9,30.14,West,263,1.0,1.0,78,0.00,,---,0.00,VWS V14.01,2013-02-25 08:58:00,
2013-02-25 04:03:00,25.8,19.9,30.15,West,280,1.0,2.0,78,0.00,,---,0.00,VWS V14.01,2013-02-25 09:03:00,
2013-02-25 04:08:00,25.7,19.8,30.14,West,273,0.0,1.0,78,0.00,,---,0.00,VWS V14.01,2013-02-25 09:08:00,
2013-02-25 04:13:00,25.5,19.6,30.14,West,259,1.0,1.0,78,0.00,,---,0.00,VWS V14.01,2013-02-25 09:13:00,
2013-02-25 04:19:00,25.6,19.7,30.15,WNW,290,0.0,1.0,78,0.00,,---,0.00,VWS V14.01,2013-02-25 09:19:00,
2013-02-25 04:24:00,25.7,19.8,30.15,West,266,0.0,0.0,78,0.00,,---,0.00,VWS V14.01,2013-02-25 09:24:00,
2013-02-25 04:29:00,25.8,19.9,30.15,WNW,285,1.0,1.0,78,0.00,,---,0.00,VWS V14.01,2013-02-25 09:29:00,
2013-02-25 04:34:00,25.6,19.7,30.14,West,277,0.0,1.0,78,0.00,,---,0.00,VWS V14.01,2013-02-25 09:34:00,
2013-02-25 04:39:00,25.5,19.6,30.15,West,264,0.0,1.0,78,0.00,,---,0.00,VWS V14.01,2013-02-25 09:39:00,
2013-02-25 04:44:00,25.5,19.6,30.15,WNW,288,1.0,1.0,78,0.00,,---,0.00,VWS V14.01,2013-02-25 09:44:00,
2013-02-25 04:49:00,25.5,19.6,30.15,WNW,294,1.0,2.0,78,0.00,,---,0.00,VWS V14.01,2013-02-25 09:49:00,
2013-02-25 04:54:00,25.4,19.8,30.15,West,274,0.0,1.0,79,0.00,,---,0.00,VWS V14.01,2013-02-25 09:54:00,
2013-02-25 04:59:00,25.3,19.7,30.15,WNW,293,1.0,1.0,79,0.00,,---,0.00,VWS V14.01,2013-02-25 09:59:00,
2013-02-25 05:04:00,25.3,19.7,30.15,West,266,0.0,1.0,79,0.00,,---,0.00,VWS V14.01,2013-02-25 10:04:00,
2013-02-25 05:09:00,25.3,19.7,30.15,West,263,0.0,2.0,79,0.00,,---,0.00,VWS V14.01,2013-02-25 10:09:00,
2013-02-25 05:14:00,25.1,19.5,30.15,West,271,1.0,2.0,79,0.00,,---,0.00,VWS V14.01,2013-02-25 10:14:00,
2013-02-25 05:19:00,25.1,19.5,30.15,West,266,0.0,1.0,79,0.00,,---,0.00,VWS V14.01,2013-02-25 10:19:00,
2013-02-25 05:24:00,25.2,19.6,30.15,West,273,1.0,1.0,79,0.00,,---,0.00,VWS V14.01,2013-02-25 10:24:00,
2013-02-25 05:29:00,25.2,19.6,30.16,WNW,293,1.0,2.0,79,0.00,,---,0.00,VWS V14.01,2013-02-25 10:29:00,
2013-02-25 05:34:00,25.3,19.7,30.16,WSW,255,1.0,1.0,79,0.00,,---,0.00,VWS V14.01,2013-02-25 10:34:00,
2013-02-25 05:39:00,25.4,19.8,30.17,WNW,287,1.0,1.0,79,0.00,,---,0.00,VWS V14.01,2013-02-25 10:39:00,
2013-02-25 05:44:00,25.7,19.8,30.17,WNW,285,1.0,2.0,78,0.00,,---,0.00,VWS V14.01,2013-02-25 10:44:00,
2013-02-25 05:49:00,25.7,19.5,30.17,West,276,0.0,1.0,77,0.00,,---,0.00,VWS V14.01,2013-02-25 10:49:00,
2013-02-25 05:54:00,25.7,19.5,30.18,WSW,257,1.0,1.0,77,0.00,,---,0.00,VWS V14.01,2013-02-25 10:54:00,
2013-02-25 05:59:00,25.8,19.6,30.18,West,280,0.0,1.0,77,0.00,,---,0.00,VWS V14.01,2013-02-25 10:59:00,
2013-02-25 06:04:00,25.8,19.6,30.18,West,280,1.0,1.0,77,0.00,,---,0.00,VWS V14.01,2013-02-25 11:04:00,
2013-02-25 06:09:00,25.7,19.5,30.18,West,271,0.0,1.0,77,0.00,,---,0.00,VWS V14.01,2013-02-25 11:09:00,
2013-02-25 06:14:00,25.7,19.5,30.18,West,271,1.0,1.0,77,0.00,,---,0.00,VWS V14.01,2013-02-25 11:14:00,
2013-02-25 06:19:00,25.6,19.4,30.18,West,263,0.0,1.0,77,0.00,,---,0.00,VWS V14.01,2013-02-25 11:19:00,
2013-02-25 06:24:00,25.6,19.7,30.18,West,269,1.0,2.0,78,0.00,,---,0.00,VWS V14.01,2013-02-25 11:24:00,
2013-02-25 06:29:00,25.5,19.6,30.18,WNW,295,1.0,3.0,78,0.00,,---,0.00,VWS V14.01,2013-02-25 11:29:00,
2013-02-25 06:34:00,25.3,19.7,30.18,WNW,288,1.0,1.0,79,0.00,,---,0.00,VWS V14.01,2013-02-25 11:34:00,
2013-02-25 06:39:00,25.1,19.5,30.18,WSW,250,2.0,2.0,79,0.00,,---,0.00,VWS V14.01,2013-02-25 11:39:00,
2013-02-25 06:44:00,25.1,19.5,30.18,West,259,1.0,2.0,79,0.00,,---,0.00,VWS V14.01,2013-02-25 11:44:00,
2013-02-25 06:49:00,25.3,19.7,30.19,West,280,1.0,2.0,79,0.00,,---,0.00,VWS V14.01,2013-02-25 11:49:00,
2013-02-25 06:54:00,25.2,19.6,30.18,NW,304,1.0,2.0,79,0.00,,---,0.00,VWS V14.01,2013-02-25 11:54:00,
2013-02-25 06:59:00,25.1,19.8,30.18,WNW,288,2.0,2.0,80,0.00,,---,0.00,VWS V14.01,2013-02-25 11:59:00,
2013-02-25 07:04:00,25.3,20.0,30.19,NW,312,1.0,2.0,80,0.00,,---,0.00,VWS V14.01,2013-02-25 12:04:00,
2013-02-25 07:09:00,25.3,20.0,30.19,WNW,290,3.0,3.0,80,0.00,,---,0.00,VWS V14.01,2013-02-25 12:09:00,
2013-02-25 07:14:00,25.5,20.2,30.18,West,263,1.0,1.0,80,0.00,,---,0.00,VWS V14.01,2013-02-25 12:14:00,
2013-02-25 07:19:00,25.7,20.4,30.19,WSW,257,0.0,2.0,80,0.00,,---,0.00,VWS V14.01,2013-02-25 12:19:00,
2013-02-25 07:24:00,26.0,20.4,30.19,WNW,293,2.0,3.0,79,0.00,,---,0.00,VWS V14.01,2013-02-25 12:24:00,
2013-02-25 07:29:00,26.1,20.5,30.19,West,263,0.0,0.0,79,0.00,,---,0.00,VWS V14.01,2013-02-25 12:29:00,
2013-02-25 07:34:00,26.3,20.4,30.19,NW,316,1.0,2.0,78,0.00,,---,0.00,VWS V14.01,2013-02-25 12:34:00,
2013-02-25 07:39:00,26.8,20.9,30.18,West,278,0.0,1.0,78,0.00,,---,0.00,VWS V14.01,2013-02-25 12:39:00,
2013-02-25 07:45:00,26.9,21.0,30.19,WNW,294,1.0,1.0,78,0.00,,---,0.00,VWS V14.01,2013-02-25 12:45:00,
2013-02-25 07:50:00,27.3,21.1,30.19,WNW,288,0.0,0.0,77,0.00,,---,0.00,VWS V14.01,2013-02-25 12:50:00,
2013-02-25 07:55:00,27.7,21.4,30.20,WNW,295,1.0,1.0,77,0.00,,---,0.00,VWS V14.01,2013-02-25 12:55:00,
2013-02-25 08:00:00,28.1,21.2,30.20,WNW,289,0.0,1.0,75,0.00,,---,0.00,VWS V14.01,2013-02-25 13:00:00,
2013-02-25 08:05:00,28.7,21.5,30.21,WNW,300,0.0,1.0,74,0.00,,---,0.00,VWS V14.01,2013-02-25 13:05:00,
2013-02-25 08:10:00,29.2,21.6,30.20,NW,319,0.0,1.0,73,0.00,,---,0.00,VWS V14.01,2013-02-25 13:10:00,
2013-02-25 08:15:00,29.6,21.7,30.21,NW,308,0.0,1.0,72,0.00,,---,0.00,VWS V14.01,2013-02-25 13:15:00,
2013-02-25 08:20:00,29.9,22.0,30.21,NW,304,0.0,1.0,72,0.00,,---,0.00,VWS V14.01,2013-02-25 13:20:00,
2013-02-25 08:25:00,30.0,21.8,30.21,NW,325,0.0,1.0,71,0.00,,---,0.00,VWS V14.01,2013-02-25 13:25:00,
2013-02-25 08:30:00,30.4,22.5,30.21,NW,308,0.0,0.0,72,0.00,,---,0.00,VWS V14.01,2013-02-25 13:30:00,
2013-02-25 08:35:00,30.9,22.3,30.21,NW,319,0.0,1.0,70,0.00,,---,0.00,VWS V14.01,2013-02-25 13:35:00,
2013-02-25 08:40:00,31.3,22.0,30.21,NW,304,0.0,1.0,68,0.00,,---,0.00,VWS V14.01,2013-02-25 13:40:00,
2013-02-25 08:45:00,31.7,22.4,30.21,North,11,1.0,1.0,68,0.00,,---,0.00,VWS V14.01,2013-02-25 13:45:00,
2013-02-25 08:50:00,32.1,22.8,30.22,NNW,329,0.0,1.0,68,0.00,,---,0.00,VWS V14.01,2013-02-25 13:50:00,
2013-02-25 08:55:00,32.4,22.3,30.22,NW,305,0.0,0.0,66,0.00,,---,0.00,VWS V14.01,2013-02-25 13:55:00,
2013-02-25 09:01:00,32.6,22.5,30.21,WNW,297,0.0,1.0,66,0.00,,---,0.00,VWS V14.01,2013-02-25 14:01:00,
2013-02-25 09:06:00,32.9,22.4,30.22,SW,221,1.0,1.0,65,0.00,,---,0.00,VWS V14.01,2013-02-25 14:06:00,
2013-02-25 09:11:00,33.1,22.3,30.22,NNE,30,0.0,2.0,64,0.00,,---,0.00,VWS V14.01,2013-02-25 14:11:00,
2013-02-25 09:16:00,33.4,22.2,30.22,NNW,333,0.0,1.0,63,0.00,,---,0.00,VWS V14.01,2013-02-25 14:16:00,
2013-02-25 09:21:00,33.8,22.5,30.23,NW,307,0.0,0.0,63,0.00,,---,0.00,VWS V14.01,2013-02-25 14:21:00,
2013-02-25 09:26:00,33.7,22.1,30.23,NW,323,0.0,1.0,62,0.00,,---,0.00,VWS V14.01,2013-02-25 14:26:00,
2013-02-25 09:31:00,33.7,22.1,30.22,NE,38,3.0,3.0,62,0.00,,---,0.00,VWS V14.01,2013-02-25 14:31:00,
2013-02-25 09:36:00,33.5,22.3,30.22,WNW,299,1.0,2.0,63,0.00,,---,0.00,VWS V14.01,2013-02-25 14:36:00,
2013-02-25 09:41:00,33.7,22.8,30.22,NNW,335,1.0,4.0,64,0.00,,---,0.00,VWS V14.01,2013-02-25 14:41:00,
2013-02-25 09:46:00,34.2,22.9,30.22,NNW,334,3.0,3.0,63,0.00,,---,0.00,VWS V14.01,2013-02-25 14:46:00,
2013-02-25 09:51:00,34.2,22.5,30.23,WNW,297,0.0,1.0,62,0.00,,---,0.00,VWS V14.01,2013-02-25 14:51:00,
2013-02-25 09:56:00,34.4,23.1,30.23,NNE,25,0.0,0.0,63,0.00,,---,0.00,VWS V14.01,2013-02-25 14:56:00,
2013-02-25 10:01:00,34.7,23.0,30.23,NNE,25,1.0,3.0,62,0.00,,---,0.00,VWS V14.01,2013-02-25 15:01:00,
2013-02-25 10:06:00,34.9,22.8,30.23,NW,308,1.0,1.0,61,0.00,,---,0.00,VWS V14.01,2013-02-25 15:06:00,
2013-02-25 10:11:00,35.2,23.1,30.22,NNW,345,1.0,1.0,61,0.00,,---,0.00,VWS V14.01,2013-02-25 15:11:00,
2013-02-25 10:16:00,35.5,23.4,30.23,NNW,339,1.0,1.0,61,0.00,,---,0.00,VWS V14.01,2013-02-25 15:16:00,
2013-02-25 10:21:00,35.7,23.2,30.23,NW,324,1.0,2.0,60,0.00,,---,0.00,VWS V14.01,2013-02-25 15:21:00,
2013-02-25 10:26:00,36.1,23.6,30.23,NNE,16,0.0,2.0,60,0.00,,---,0.00,VWS V14.01,2013-02-25 15:26:00,
2013-02-25 10:31:00,36.5,23.1,30.23,East,85,2.0,2.0,58,0.00,,---,0.00,VWS V14.01,2013-02-25 15:31:00,
2013-02-25 10:36:00,36.4,23.0,30.23,ENE,65,1.0,1.0,58,0.00,,---,0.00,VWS V14.01,2013-02-25 15:36:00,
2013-02-25 10:42:00,37.0,23.6,30.23,NNE,15,2.0,2.0,58,0.00,,---,0.00,VWS V14.01,2013-02-25 15:42:00,
2013-02-25 10:47:00,37.2,23.0,30.23,WNW,294,0.0,1.0,56,0.00,,---,0.00,VWS V14.01,2013-02-25 15:47:00,
2013-02-25 10:52:00,37.3,22.6,30.23,WNW,301,0.0,0.0,55,0.00,,---,0.00,VWS V14.01,2013-02-25 15:52:00,
2013-02-25 10:57:00,37.3,22.6,30.22,WSW,243,0.0,1.0,55,0.00,,---,0.00,VWS V14.01,2013-02-25 15:57:00,
2013-02-25 11:02:00,37.3,22.2,30.22,SW,225,0.0,1.0,54,0.00,,---,0.00,VWS V14.01,2013-02-25 16:02:00,
2013-02-25 11:07:00,37.3,22.6,30.22,NNE,20,0.0,0.0,55,0.00,,---,0.00,VWS V14.01,2013-02-25 16:07:00,
2013-02-25 11:12:00,37.7,22.6,30.23,NW,322,1.0,2.0,54,0.00,,---,0.00,VWS V14.01,2013-02-25 16:12:00,
2013-02-25 11:17:00,38.0,22.9,30.23,North,349,0.0,1.0,54,0.00,,---,0.00,VWS V14.01,2013-02-25 16:17:00,
2013-02-25 11:22:00,38.4,23.2,30.22,SE,125,0.0,1.0,54,0.00,,---,0.00,VWS V14.01,2013-02-25 16:22:00,
2013-02-25 11:27:00,39.0,22.9,30.22,East,93,1.0,1.0,52,0.00,,---,0.00,VWS V14.01,2013-02-25 16:27:00,
2013-02-25 11:32:00,38.4,23.2,30.23,South,183,1.0,1.0,54,0.00,,---,0.00,VWS V14.01,2013-02-25 16:32:00,
2013-02-25 11:38:00,38.9,22.3,30.23,NW,304,0.0,1.0,51,0.00,,---,0.00,VWS V14.01,2013-02-25 16:38:00,
2013-02-25 11:43:00,38.9,22.8,30.23,WNW,284,0.0,0.0,52,0.00,,---,0.00,VWS V14.01,2013-02-25 16:43:00,
2013-02-25 11:48:00,39.6,23.4,30.22,NW,307,0.0,0.0,52,0.00,,---,0.00,VWS V14.01,2013-02-25 16:48:00,
2013-02-25 11:53:00,40.1,23.4,30.22,WNW,291,2.0,3.0,51,0.00,,---,0.00,VWS V14.01,2013-02-25 16:53:00,
2013-02-25 11:58:00,40.0,22.9,30.22,NNE,19,1.0,2.0,50,0.00,,---,0.00,VWS V14.01,2013-02-25 16:58:00,
2013-02-25 12:03:00,40.3,23.1,30.22,WNW,301,0.0,2.0,50,0.00,,---,0.00,VWS V14.01,2013-02-25 17:03:00,
2013-02-25 12:08:00,40.6,23.9,30.22,NE,37,2.0,3.0,51,0.00,,---,0.00,VWS V14.01,2013-02-25 17:08:00,
2013-02-25 12:13:00,40.3,23.6,30.21,ENE,75,0.0,1.0,51,0.00,,---,0.00,VWS V14.01,2013-02-25 17:13:00,
2013-02-25 12:19:00,40.1,23.0,30.20,SE,125,1.0,1.0,50,0.00,,---,0.00,VWS V14.01,2013-02-25 17:19:00,
2013-02-25 12:24:00,40.2,23.5,30.20,NE,41,0.0,3.0,51,0.00,,---,0.00,VWS V14.01,2013-02-25 17:24:00,
2013-02-25 12:29:00,40.3,23.6,30.21,NE,47,1.0,2.0,51,0.00,,---,0.00,VWS V14.01,2013-02-25 17:29:00,
2013-02-25 12:34:00,40.6,23.9,30.21,West,277,0.0,2.0,51,0.00,,---,0.00,VWS V14.01,2013-02-25 17:34:00,
2013-02-25 12:39:00,40.2,23.5,30.21,East,80,1.0,1.0,51,0.00,,---,0.00,VWS V14.01,2013-02-25 17:39:00,
2013-02-25 12:44:00,40.3,23.6,30.21,East,97,3.0,3.0,51,0.00,,---,0.00,VWS V14.01,2013-02-25 17:44:00,
2013-02-25 12:49:00,40.1,23.9,30.21,NW,313,0.0,1.0,52,0.00,,---,0.00,VWS V14.01,2013-02-25 17:49:00,
2013-02-25 12:54:00,40.5,23.3,30.21,NNW,333,0.0,1.0,50,0.00,,---,0.00,VWS V14.01,2013-02-25 17:54:00,
2013-02-25 12:59:00,40.3,23.1,30.21,SSE,163,0.0,0.0,50,0.00,,---,0.00,VWS V14.01,2013-02-25 17:59:00,
2013-02-25 13:04:00,39.8,22.7,30.21,SSW,205,0.0,0.0,50,0.00,,---,0.00,VWS V14.01,2013-02-25 18:04:00,
2013-02-25 13:09:00,40.1,23.4,30.21,SSE,161,0.0,0.0,51,0.00,,---,0.00,VWS V14.01,2013-02-25 18:09:00,
2013-02-25 13:15:00,40.6,23.4,30.21,NE,50,2.0,2.0,50,0.00,,---,0.00,VWS V14.01,2013-02-25 18:15:00,
2013-02-25 13:20:00,40.5,23.3,30.20,NNE,15,0.0,0.0,50,0.00,,---,0.00,VWS V14.01,2013-02-25 18:20:00,
2013-02-25 13:25:00,40.2,23.5,30.20,SSW,203,0.0,0.0,51,0.00,,---,0.00,VWS V14.01,2013-02-25 18:25:00,
2013-02-25 13:30:00,40.4,23.2,30.19,NNE,18,0.0,0.0,50,0.00,,---,0.00,VWS V14.01,2013-02-25 18:30:00,
2013-02-25 13:35:00,40.6,23.4,30.19,SE,134,0.0,1.0,50,0.00,,---,0.00,VWS V14.01,2013-02-25 18:35:00,
2013-02-25 13:40:00,41.0,23.8,30.19,ESE,120,2.0,2.0,50,0.00,,---,0.00,VWS V14.01,2013-02-25 18:40:00,
2013-02-25 13:45:00,40.8,23.6,30.19,NW,326,0.0,0.0,50,0.00,,---,0.00,VWS V14.01,2013-02-25 18:45:00,
2013-02-25 13:51:00,41.2,24.0,30.19,East,79,0.0,0.0,50,0.00,,---,0.00,VWS V14.01,2013-02-25 18:51:00,
2013-02-25 13:56:00,41.5,23.8,30.19,NW,310,0.0,2.0,49,0.00,,---,0.00,VWS V14.01,2013-02-25 18:56:00,
2013-02-25 14:01:00,41.2,23.0,30.18,East,87,1.0,1.0,48,0.00,,---,0.00,VWS V14.01,2013-02-25 19:01:00,
2013-02-25 14:06:00,40.8,23.1,30.18,ESE,116,0.0,0.0,49,0.00,,---,0.00,VWS V14.01,2013-02-25 19:06:00,
2013-02-25 14:11:00,41.1,22.9,30.18,ENE,62,0.0,0.0,48,0.00,,---,0.00,VWS V14.01,2013-02-25 19:11:00,
2013-02-25 14:16:00,41.3,23.6,30.18,ESE,102,1.0,1.0,49,0.00,,---,0.00,VWS V14.01,2013-02-25 19:16:00,
2013-02-25 14:21:00,41.3,22.6,30.18,South,173,0.0,1.0,47,0.00,,---,0.00,VWS V14.01,2013-02-25 19:21:00,
2013-02-25 14:26:00,41.3,23.6,30.18,ESE,122,1.0,1.0,49,0.00,,---,0.00,VWS V14.01,2013-02-25 19:26:00,
2013-02-25 14:31:00,41.1,22.9,30.18,ESE,118,0.0,0.0,48,0.00,,---,0.00,VWS V14.01,2013-02-25 19:31:00,
2013-02-25 14:36:00,41.2,23.0,30.17,ESE,103,0.0,0.0,48,0.00,,---,0.00,VWS V14.01,2013-02-25 19:36:00,
2013-02-25 14:42:00,41.1,22.9,30.17,East,84,0.0,0.0,48,0.00,,---,0.00,VWS V14.01,2013-02-25 19:42:00,
2013-02-25 14:47:00,41.3,23.1,30.17,East,86,0.0,0.0,48,0.00,,---,0.00,VWS V14.01,2013-02-25 19:47:00,
2013-02-25 14:52:00,41.5,24.3,30.17,ENE,73,0.0,1.0,50,0.00,,---,0.00,VWS V14.01,2013-02-25 19:52:00,
2013-02-25 14:57:00,41.6,23.4,30.17,SE,143,1.0,1.0,48,0.00,,---,0.00,VWS V14.01,2013-02-25 19:57:00,
2013-02-25 15:02:00,41.3,23.6,30.17,SE,128,0.0,0.0,49,0.00,,---,0.00,VWS V14.01,2013-02-25 20:02:00,
2013-02-25 15:07:00,41.3,23.6,30.17,SW,234,0.0,1.0,49,0.00,,---,0.00,VWS V14.01,2013-02-25 20:07:00,
2013-02-25 15:12:00,41.4,23.2,30.17,NNW,334,0.0,0.0,48,0.00,,---,0.00,VWS V14.01,2013-02-25 20:12:00,
2013-02-25 15:17:00,41.7,24.5,30.17,ESE,112,1.0,1.0,50,0.00,,---,0.00,VWS V14.01,2013-02-25 20:17:00,
2013-02-25 15:22:00,41.5,23.8,30.18,SE,128,1.0,1.0,49,0.00,,---,0.00,VWS V14.01,2013-02-25 20:22:00,
2013-02-25 15:27:00,41.4,23.7,30.17,West,259,0.0,0.0,49,0.00,,---,0.00,VWS V14.01,2013-02-25 20:27:00,
2013-02-25 15:32:00,41.3,23.6,30.18,ESE,104,1.0,2.0,49,0.00,,---,0.00,VWS V14.01,2013-02-25 20:32:00,
2013-02-25 15:38:00,41.2,23.5,30.18,ENE,65,0.0,0.0,49,0.00,,---,0.00,VWS V14.01,2013-02-25 20:38:00,
2013-02-25 15:43:00,41.2,24.0,30.18,ESE,109,0.0,1.0,50,0.00,,---,0.00,VWS V14.01,2013-02-25 20:43:00,
2013-02-25 15:48:00,41.1,23.9,30.17,East,89,0.0,0.0,50,0.00,,---,0.00,VWS V14.01,2013-02-25 20:48:00,
2013-02-25 15:53:00,41.0,23.8,30.17,ENE,57,0.0,0.0,50,0.00,,---,0.00,VWS V14.01,2013-02-25 20:53:00,
2013-02-25 15:58:00,41.0,23.3,30.17,NNE,32,0.0,1.0,49,0.00,,---,0.00,VWS V14.01,2013-02-25 20:58:00,
2013-02-25 16:03:00,40.9,22.7,30.17,ESE,121,0.0,1.0,48,0.00,,---,0.00,VWS V14.01,2013-02-25 21:03:00,
2013-02-25 16:08:00,40.8,23.1,30.17,WNW,288,1.0,1.0,49,0.00,,---,0.00,VWS V14.01,2013-02-25 21:08:00,
2013-02-25 16:13:00,40.6,23.4,30.17,WNW,288,0.0,0.0,50,0.00,,---,0.00,VWS V14.01,2013-02-25 21:13:00,
2013-02-25 16:18:00,40.5,23.8,30.17,SSE,150,0.0,0.0,51,0.00,,---,0.00,VWS V14.01,2013-02-25 21:18:00,
2013-02-25 16:23:00,40.2,24.0,30.18,SE,127,1.0,1.0,52,0.00,,---,0.00,VWS V14.01,2013-02-25 21:23:00,
2013-02-25 16:28:00,40.1,23.9,30.18,ESE,112,0.0,1.0,52,0.00,,---,0.00,VWS V14.01,2013-02-25 21:28:00,
2013-02-25 16:33:00,40.0,23.8,30.18,ESE,113,0.0,0.0,52,0.00,,---,0.00,VWS V14.01,2013-02-25 21:33:00,
2013-02-25 16:38:00,39.9,24.2,30.18,SE,139,1.0,2.0,53,0.00,,---,0.00,VWS V14.01,2013-02-25 21:38:00,
2013-02-25 16:44:00,39.6,23.9,30.18,SE,136,0.0,0.0,53,0.00,,---,0.00,VWS V14.01,2013-02-25 21:44:00,
2013-02-25 16:49:00,39.5,23.8,30.17,SE,146,0.0,0.0,53,0.00,,---,0.00,VWS V14.01,2013-02-25 21:49:00,
2013-02-25 16:54:00,39.3,23.6,30.17,ESE,116,0.0,1.0,53,0.00,,---,0.00,VWS V14.01,2013-02-25 21:54:00,
2013-02-25 16:59:00,39.1,23.9,30.18,SE,127,0.0,0.0,54,0.00,,---,0.00,VWS V14.01,2013-02-25 21:59:00,
2013-02-25 17:04:00,38.9,23.7,30.18,SE,127,0.0,0.0,54,0.00,,---,0.00,VWS V14.01,2013-02-25 22:04:00,
2013-02-25 17:09:00,38.6,23.4,30.18,SE,128,0.0,0.0,54,0.00,,---,0.00,VWS V14.01,2013-02-25 22:09:00,
2013-02-25 17:14:00,38.5,23.3,30.18,SE,128,0.0,0.0,54,0.00,,---,0.00,VWS V14.01,2013-02-25 22:14:00,
2013-02-25 17:19:00,38.3,23.6,30.18,SE,128,0.0,0.0,55,0.00,,---,0.00,VWS V14.01,2013-02-25 22:19:00,
2013-02-25 17:24:00,38.1,23.8,30.18,SE,127,0.0,0.0,56,0.00,,---,0.00,VWS V14.01,2013-02-25 22:24:00,
2013-02-25 17:30:00,37.8,23.5,30.18,SE,141,0.0,0.0,56,0.00,,---,0.00,VWS V14.01,2013-02-25 22:30:00,
2013-02-25 17:35:00,37.8,23.5,30.18,SE,141,0.0,0.0,56,0.00,,---,0.00,VWS V14.01,2013-02-25 22:35:00,
2013-02-25 17:40:00,37.7,23.4,30.18,SE,141,0.0,0.0,56,0.00,,---,0.00,VWS V14.01,2013-02-25 22:40:00,
2013-02-25 17:45:00,37.6,23.3,30.19,SE,142,0.0,0.0,56,0.00,,---,0.00,VWS V14.01,2013-02-25 22:45:00,
2013-02-25 17:50:00,37.4,23.6,30.18,SE,142,0.0,0.0,57,0.00,,---,0.00,VWS V14.01,2013-02-25 22:50:00,
2013-02-25 17:55:00,37.3,23.5,30.19,SE,142,0.0,0.0,57,0.00,,---,0.00,VWS V14.01,2013-02-25 22:55:00,
2013-02-25 18:00:00,37.2,23.4,30.19,SW,217,0.0,0.0,57,0.00,,---,0.00,VWS V14.01,2013-02-25 23:00:00,
2013-02-25 18:05:00,37.0,23.2,30.19,SW,217,0.0,0.0,57,0.00,,---,0.00,VWS V14.01,2013-02-25 23:05:00,
2013-02-25 18:10:00,36.9,23.1,30.19,SW,217,0.0,1.0,57,0.00,,---,0.00,VWS V14.01,2013-02-25 23:10:00,
2013-02-25 18:15:00,36.7,22.9,30.19,SW,236,0.0,0.0,57,0.00,,---,0.00,VWS V14.01,2013-02-25 23:15:00,
2013-02-25 18:20:00,36.5,22.7,30.19,SW,236,0.0,0.0,57,0.00,,---,0.00,VWS V14.01,2013-02-25 23:20:00,
2013-02-25 18:26:00,36.6,22.8,30.19,SW,236,0.0,0.0,57,0.00,,---,0.00,VWS V14.01,2013-02-25 23:26:00,
2013-02-25 18:31:00,36.5,22.7,30.20,SW,236,0.0,0.0,57,0.00,,---,0.00,VWS V14.01,2013-02-25 23:31:00,
2013-02-25 18:36:00,36.5,22.7,30.20,SW,236,0.0,0.0,57,0.00,,---,0.00,VWS V14.01,2013-02-25 23:36:00,
2013-02-25 18:41:00,36.5,22.7,30.20,SW,236,0.0,0.0,57,0.00,,---,0.00,VWS V14.01,2013-02-25 23:41:00,
2013-02-25 18:46:00,36.4,22.6,30.20,SW,236,0.0,0.0,57,0.00,,---,0.00,VWS V14.01,2013-02-25 23:46:00,
2013-02-25 18:51:00,36.3,22.5,30.20,SW,236,0.0,0.0,57,0.00,,---,0.00,VWS V14.01,2013-02-25 23:51:00,
2013-02-25 18:56:00,36.2,22.9,30.20,SW,236,0.0,0.0,58,0.00,,---,0.00,VWS V14.01,2013-02-25 23:56:00,
2013-02-25 19:01:00,36.1,22.8,30.20,SW,236,0.0,0.0,58,0.00,,---,0.00,VWS V14.01,2013-02-26 00:01:00,
2013-02-25 19:06:00,36.0,22.7,30.20,SW,235,0.0,0.0,58,0.00,,---,0.00,VWS V14.01,2013-02-26 00:06:00,
2013-02-25 19:11:00,35.9,23.0,30.21,SW,235,0.0,0.0,59,0.00,,---,0.00,VWS V14.01,2013-02-26 00:11:00,
2013-02-25 19:16:00,35.8,22.9,30.21,SW,226,1.0,1.0,59,0.00,,---,0.00,VWS V14.01,2013-02-26 00:16:00,
2013-02-25 19:21:00,35.7,22.8,30.21,SW,226,0.0,0.0,59,0.00,,---,0.00,VWS V14.01,2013-02-26 00:21:00,
2013-02-25 19:26:00,35.6,23.1,30.21,SW,226,0.0,0.0,60,0.00,,---,0.00,VWS V14.01,2013-02-26 00:26:00,
2013-02-25 19:31:00,35.5,23.0,30.21,SSW,203,0.0,0.0,60,0.00,,---,0.00,VWS V14.01,2013-02-26 00:31:00,
2013-02-25 19:36:00,35.3,23.2,30.21,SSW,200,0.0,0.0,61,0.00,,---,0.00,VWS V14.01,2013-02-26 00:36:00,
2013-02-25 19:41:00,35.1,23.4,30.21,SSW,201,0.0,0.0,62,0.00,,---,0.00,VWS V14.01,2013-02-26 00:41:00,
2013-02-25 19:47:00,34.9,23.2,30.21,SSW,205,0.0,0.0,62,0.00,,---,0.00,VWS V14.01,2013-02-26 00:47:00,
2013-02-25 19:52:00,34.8,23.5,30.21,SSW,205,0.0,0.0,63,0.00,,---,0.00,VWS V14.01,2013-02-26 00:52:00,
2013-02-25 19:57:00,34.5,23.2,30.22,SSW,205,0.0,0.0,63,0.00,,---,0.00,VWS V14.01,2013-02-26 00:57:00,
2013-02-25 20:02:00,34.5,23.2,30.21,SSW,201,0.0,0.0,63,0.00,,---,0.00,VWS V14.01,2013-02-26 01:02:00,
2013-02-25 20:07:00,34.3,23.4,30.21,SSE,150,0.0,0.0,64,0.00,,---,0.00,VWS V14.01,2013-02-26 01:07:00,
2013-02-25 20:12:00,34.3,23.4,30.21,South,169,0.0,0.0,64,0.00,,---,0.00,VWS V14.01,2013-02-26 01:12:00,
2013-02-25 20:17:00,34.3,23.4,30.21,South,169,0.0,0.0,64,0.00,,---,0.00,VWS V14.01,2013-02-26 01:17:00,
2013-02-25 20:22:00,34.3,23.4,30.21,South,169,0.0,0.0,64,0.00,,---,0.00,VWS V14.01,2013-02-26 01:22:00,
2013-02-25 20:27:00,34.4,23.5,30.21,South,171,0.0,0.0,64,0.00,,---,0.00,VWS V14.01,2013-02-26 01:27:00,
2013-02-25 20:32:00,34.4,23.5,30.21,SW,214,0.0,0.0,64,0.00,,---,0.00,VWS V14.01,2013-02-26 01:32:00,
2013-02-25 20:37:00,34.5,23.6,30.21,SW,214,0.0,0.0,64,0.00,,---,0.00,VWS V14.01,2013-02-26 01:37:00,
2013-02-25 20:43:00,34.4,23.5,30.22,SW,221,0.0,1.0,64,0.00,,---,0.00,VWS V14.01,2013-02-26 01:43:00,
2013-02-25 20:48:00,34.5,23.6,30.22,SW,221,0.0,0.0,64,0.00,,---,0.00,VWS V14.01,2013-02-26 01:48:00,
2013-02-25 20:53:00,34.5,23.6,30.21,SW,221,0.0,0.0,64,0.00,,---,0.00,VWS V14.01,2013-02-26 01:53:00,
2013-02-25 20:58:00,34.4,23.5,30.21,SW,221,0.0,0.0,64,0.00,,---,0.00,VWS V14.01,2013-02-26 01:58:00,
2013-02-25 21:03:00,34.3,23.4,30.21,SW,221,0.0,0.0,64,0.00,,---,0.00,VWS V14.01,2013-02-26 02:03:00,
2013-02-25 21:08:00,34.2,23.7,30.21,SW,221,0.0,0.0,65,0.00,,---,0.00,VWS V14.01,2013-02-26 02:08:00,
2013-02-25 21:13:00,34.1,23.6,30.21,SW,215,0.0,0.0,65,0.00,,---,0.00,VWS V14.01,2013-02-26 02:13:00,
2013-02-25 21:18:00,33.9,23.4,30.20,SSW,208,0.0,0.0,65,0.00,,---,0.00,VWS V14.01,2013-02-26 02:18:00,
2013-02-25 21:23:00,33.8,23.7,30.20,SSW,207,0.0,0.0,66,0.00,,---,0.00,VWS V14.01,2013-02-26 02:23:00,
2013-02-25 21:29:00,33.7,23.6,30.21,SSW,210,0.0,0.0,66,0.00,,---,0.00,VWS V14.01,2013-02-26 02:29:00,
2013-02-25 21:34:00,33.6,23.5,30.21,SSW,210,0.0,0.0,66,0.00,,---,0.00,VWS V14.01,2013-02-26 02:34:00,
2013-02-25 21:39:00,33.6,23.5,30.20,SSW,205,0.0,0.0,66,0.00,,---,0.00,VWS V14.01,2013-02-26 02:39:00,
2013-02-25 21:44:00,33.5,23.4,30.20,SSW,205,0.0,0.0,66,0.00,,---,0.00,VWS V14.01,2013-02-26 02:44:00,
2013-02-25 21:49:00,33.5,23.4,30.21,SSW,206,0.0,0.0,66,0.00,,---,0.00,VWS V14.01,2013-02-26 02:49:00,
2013-02-25 21:54:00,33.5,23.4,30.21,SSW,205,0.0,0.0,66,0.00,,---,0.00,VWS V14.01,2013-02-26 02:54:00,
2013-02-25 21:59:00,33.3,23.5,30.21,SE,124,1.0,1.0,67,0.00,,---,0.00,VWS V14.01,2013-02-26 02:59:00,
2013-02-25 22:04:00,33.7,23.9,30.21,ESE,117,1.0,3.0,67,0.00,,---,0.00,VWS V14.01,2013-02-26 03:04:00,
2013-02-25 22:09:00,34.1,24.0,30.21,ESE,120,1.0,3.0,66,0.00,,---,0.00,VWS V14.01,2013-02-26 03:09:00,
2013-02-25 22:14:00,34.0,23.9,30.21,SE,131,1.0,1.0,66,0.00,,---,0.00,VWS V14.01,2013-02-26 03:14:00,
2013-02-25 22:19:00,33.3,23.5,30.21,South,188,0.0,0.0,67,0.00,,---,0.00,VWS V14.01,2013-02-26 03:19:00,
2013-02-25 22:25:00,32.8,23.8,30.21,South,186,0.0,0.0,69,0.00,,---,0.00,VWS V14.01,2013-02-26 03:25:00,
2013-02-25 22:30:00,32.4,23.4,30.21,SE,139,0.0,0.0,69,0.00,,---,0.00,VWS V14.01,2013-02-26 03:30:00,
2013-02-25 22:35:00,32.1,23.4,30.20,South,187,0.0,0.0,70,0.00,,---,0.00,VWS V14.01,2013-02-26 03:35:00,
2013-02-25 22:40:00,32.1,23.8,30.20,SE,131,0.0,0.0,71,0.00,,---,0.00,VWS V14.01,2013-02-26 03:40:00,
2013-02-25 22:45:00,32.0,23.7,30.20,SW,232,0.0,1.0,71,0.00,,---,0.00,VWS V14.01,2013-02-26 03:45:00,
2013-02-25 22:50:00,31.8,23.8,30.19,South,190,0.0,1.0,72,0.00,,---,0.00,VWS V14.01,2013-02-26 03:50:00,
2013-02-25 22:55:00,31.6,23.6,30.18,SE,134,0.0,0.0,72,0.00,,---,0.00,VWS V14.01,2013-02-26 03:55:00,
2013-02-25 23:00:00,31.6,24.0,30.18,SSE,163,0.0,0.0,73,0.00,,---,0.00,VWS V14.01,2013-02-26 04:00:00,
2013-02-25 23:06:00,31.6,24.0,30.21,WSW,244,0.0,0.0,73,0.00,,---,0.00,VWS V14.01,2013-02-26 04:06:00,
2013-02-25 23:11:00,31.5,23.9,30.20,SW,221,0.0,0.0,73,0.00,,---,0.00,VWS V14.01,2013-02-26 04:11:00,
2013-02-25 23:16:00,31.6,24.0,30.22,SW,236,0.0,0.0,73,0.00,,---,0.00,VWS V14.01,2013-02-26 04:16:00,
2013-02-25 23:21:00,31.7,24.0,30.22,SW,225,0.0,0.0,73,0.00,,---,0.00,VWS V14.01,2013-02-26 04:21:00,
2013-02-25 23:26:00,31.7,24.0,30.23,WSW,246,0.0,0.0,73,0.00,,---,0.00,VWS V14.01,2013-02-26 04:26:00,
2013-02-25 23:32:00,31.6,23.6,30.21,WSW,246,0.0,0.0,72,0.00,,---,0.00,VWS V14.01,2013-02-26 04:32:00,
2013-02-25 23:37:00,31.6,23.6,30.21,WSW,246,0.0,0.0,72,0.00,,---,0.00,VWS V14.01,2013-02-26 04:37:00,
2013-02-25 23:42:00,31.6,24.0,30.20,SW,225,0.0,0.0,73,0.00,,---,0.00,VWS V14.01,2013-02-26 04:42:00,
2013-02-25 23:47:00,31.5,23.9,30.20,South,169,0.0,0.0,73,0.00,,---,0.00,VWS V14.01,2013-02-26 04:47:00,
2013-02-25 23:52:00,31.5,23.9,30.20,SSW,203,0.0,0.0,73,0.00,,---,0.00,VWS V14.01,2013-02-26 04:52:00,
2013-02-25 23:57:00,31.5,23.9,30.21,SSW,203,0.0,0.0,73,0.00,,---,0.00,VWS V14.01,2013-02-26 04:57:00,